Location: Biharia
(46.4333°N, 22.8000°E)
Time: 22:00:00
(UTC+00:00)

Okean 1 Rocket - Pass Details

Date: 16 October 2021
Orbit: 607 x 633 km, 82.5° (Epoch: 29 November)

Event Time Altitude Azimuth Distance (km) Brightness Sun altitude
Rises 16:55:29 0° 201° (SSW) 2,854 6.7 -13.7°
Reaches altitude 10° 16:57:44 10° 206° (SSW) 1,954 5.9 -14.1°
Maximum altitude 17:01:56 50° 283° (WNW) 779 4.0 -14.8°
Drops below altitude 10° 17:06:12 10° 359° (N) 1,974 5.7 -15.5°
Sets 17:08:29 0° 5° (N) 2,886 6.5 -15.9°
